Voltar ao catálogo

STARLINK-5698

AtivoComunicaçõesVLEO
NORAD 55623·PAYLOAD·🇺🇸 United States

Lançado Feb 12, 2023 de Cape Canaveral Space Force Station

Loading…

Próximas Passagens (próximas 24 horas)

TLE

AtualizadoSource: CelesTrak SupGP

Época: Sep 14, 2026, 20:53 UTC

1 55623C 23020BG  26257.87062500 -.00013321  00000+0 -48237-3 0  2573
2 55623  43.0040   5.8855 0001727 280.0192   2.0042 15.27593220    19

Acompanhe STARLINK-5698 em tempo real com AllMySat

Download on the App Store